Torna al catalogo

COSMOS 2251 DEB

AttivoLEO
NORAD 34481·DEBRIS·🇷🇺 Russia

Lanciato Jun 16, 1993 da Plesetsk Cosmodrome

Loading…

Prossimi Passaggi (prossime 24 ore)

TLE

AggiornatoSource: Space-Track

Epoca: Sep 14, 2026, 10:34 UTC

1 34481U 93036UA  26257.44091733  .00000706  00000-0  25936-3 0  9995
2 34481  73.9762 267.9979 0068591  16.4109  53.4274 14.33265186913989

Traccia COSMOS 2251 DEB in tempo reale con AllMySat

Download on the App Store